Location: Kampernieuwstad
(52.5135°N, 5.8742°E)
Time: 11:13:56
(UTC+00:00)

Cosmos 1980 - Pass Details

Date: 15 May 2026
Orbit: 838 x 845 km, 71.0° (Epoch: 8 June)

Event Time Altitude Azimuth Distance (km) Brightness Sun altitude
Rises 22:39:35 0° 329° (NNW) 3,407 8.3 -17.5°
Reaches altitude 10° 22:42:03 10° 332° (NNW) 2,470 7.3 -17.6°
Maximum altitude 22:47:43 70° 56° (NE) 897 3.9 -17.8°
Enters shadow 22:51:10 24° 135° (SE) 1,666 4.8 -17.9°
